User: anonymous   Login
Location: Mentone
(34.5413°N, 85.5351°W)
Time: 05:10:21
(UTC-05:00)
Language:

A-11 Canister half - Orbit

View from above orbital plane
View from above orbital plane
View from above satellite
View from above satellite

Ground track
Ground track

The orbit data is extracted from the following two-line orbital elements,

1    53U 60009E   16237.85389502 -.00000084 +00000-0 +00000-0 0  9995
2    53 047.2749 233.3128 0100386 286.1233 072.8524 12.17191685498941
Epoch (UTC): 24 August 2016 20:29:36
Eccentricity: 0.0100386
inclination: 47.2749°
perigee height: 1524 km
apogee height: 1685 km
right ascension of ascending node: 233.3128°
argument of perigee: 286.1233°
revolutions per day: 12.17191685
mean anomaly at epoch: 72.8524°
orbit number at epoch: 49894

The dashed part of the orbit path shows where the satellite is in the earth's shadow,  

DLR